Location: Hungerford
(51.4167°N, 1.5167°W)
Time: 08:42:04
(UTC+00:00)

Cosmos 1048 Rocket - Pass Details

Date: 17 January 2021
Orbit: 744 x 791 km, 74.0° (Epoch: 24 February)

Event Time Altitude Azimuth Distance (km) Brightness Sun altitude
Rises 20:21:39 0° 337° (NNW) 3,199 7.6 -35.3°
Reaches altitude 10° 20:24:07 10° 344° (NNW) 2,270 6.7 -35.7°
Enters shadow 20:24:16 11° 345° (NNW) 2,214 6.6 -35.7°
